Regional Weather Roundup
Issued by NWS Little Rock, AR

Home | Current Version | Previous Version | Text Only | Print | Product List | Glossary Off
Versions: 1 2 3 4 5 6 7 8 9 10 11 12 13 14 15 16 17 18 19 20 21 22 23 24 25 26 27 28 29 30 31 32 33 34 35 36 37 38 39 40 41 42 43 44 45 46 47 48 49 50

000
ASUS44 KLZK 210605
RWRLZK

WEATHER ROUNDUP FOR ARKANSAS
NATIONAL WEATHER SERVICE LITTLE ROCK AR
100 AM CDT TUE OCT 21 2014

NOTE: "FAIR" INDICATES FEW OR NO CLOUDS BELOW 12,000 FEET WITH NO
SIGNIFICANT WEATHER AND/OR OBSTRUCTIONS TO VISIBILITY.

ARZ001-003-010-029-210700-
NORTHWEST ARKANSAS

CITY           SKY/WX    TMP DP  RH WIND       PRES   REMARKS
FAYETTEVILLE   FOG       51  51 100 CALM      30.09S VSB 1/4
6HR MIN TEMP:  50; 6HR MAX TEMP:  60;

FORT SMITH     CLEAR     60  57  89 NE3       30.05F
6HR MIN TEMP:  58; 6HR MAX TEMP:  66;

HARRISON       CLEAR     58  57  97 W5        30.07F
6HR MIN TEMP:  58; 6HR MAX TEMP:  61;

BENTONVILLE    CLOUDY    52  48  87 CALM      30.08S VSB<1/4
6HR MIN TEMP:  50; 6HR MAX TEMP:  63;

ROGERS         CLEAR     52  51  97 S5        30.09S
6HR MIN TEMP:  52; 6HR MAX TEMP:  60;

SILOAM SPGS    MOCLDY    48  45  87 E6        30.09S VSB 1/4
6HR MIN TEMP:  48; 6HR MAX TEMP:  64;

HIGHFILL       FOG       49  49 100 CALM      30.08S VSB 1/4
6HR MIN TEMP:  49; 6HR MAX TEMP:  61;

$$

ARZ004-005-016-210700-
NORTH CENTRAL ARKANSAS

CITY           SKY/WX    TMP DP  RH WIND       PRES   REMARKS
BATESVILLE     CLEAR     57  55  94 NW3       30.04S
6HR MIN TEMP:  57; 6HR MAX TEMP:  64;

FLIPPIN        MOCLDY    55  50  82 CALM      30.06S VSB 3/4
6HR MIN TEMP:  54; 6HR MAX TEMP:  64;

MTN HOME       CLEAR     58  57  97 NW3       30.06R
6HR MIN TEMP:  56; 6HR MAX TEMP:  66;

$$

ARZ040-041-210700-
WEST CENTRAL ARKANSAS

CITY           SKY/WX    TMP DP  RH WIND       PRES   REMARKS
MENA           CLEAR     55  55 100 CALM      30.06F
MOUNT IDA      CLEAR     56  54  93 CALM      30.03F FOG
6HR MIN TEMP:  56; 6HR MAX TEMP:  64;

$$

ARZ009-017-025-026-028-210700-
NORTHEAST ARKANSAS

CITY           SKY/WX    TMP DP  RH WIND       PRES   REMARKS
CORNING        FAIR      57  57 100 NW5       30.03S
JONESBORO      CLEAR     62  57  83 NW9       30.02S
6HR MIN TEMP:  61; 6HR MAX TEMP:  67;

NEWPORT        CLEAR     58  56  93 CALM      30.04S
6HR MIN TEMP:  58; 6HR MAX TEMP:  67;

WALNUT RIDGE   CLEAR     55  52  88 CALM      30.03R
6HR MIN TEMP:  55; 6HR MAX TEMP:  66;

BLYTHEVILLE    CLEAR     57  54  89 SW3       30.02S
6HR MIN TEMP:  57; 6HR MAX TEMP:  67;

$$

ARZ022-023-033-042-044-210700-
CENTRAL ARKANSAS

CITY           SKY/WX    TMP DP  RH WIND       PRES   REMARKS
LITTLE ROCK    CLEAR     57  53  86 CALM      30.05F
6HR MIN TEMP:  57; 6HR MAX TEMP:  65;

N LITTLE ROCK    N/A     58  58  97 W3        30.05F
6HR MIN TEMP:  58; 6HR MAX TEMP:  65;

JACKSONVILLE   CLEAR     53  52  95 CALM      30.04F
6HR MIN TEMP:  53; 6HR MAX TEMP:  63;

SEARCY         CLEAR     54  53  97 CALM      30.05S
6HR MIN TEMP:  53; 6HR MAX TEMP:  63;

HOT SPRINGS    CLEAR     56  54  93 CALM      30.05F
6HR MIN TEMP:  56; 6HR MAX TEMP:  65;

RUSSELLVILLE   CLEAR     54  53  97 CALM      30.05S FOG
6HR MIN TEMP:  54; 6HR MAX TEMP:  62;

$$

ARZ036-210700-
EAST ARKANSAS

CITY           SKY/WX    TMP DP  RH WIND       PRES   REMARKS
WEST MEMPHIS   CLEAR     58  55  90 CALM      30.02S
6HR MIN TEMP:  54; 6HR MAX TEMP:  65;

$$

ARZ050-053-066-070-073-210700-
SOUTHWEST ARKANSAS

CITY           SKY/WX    TMP DP  RH WIND       PRES   REMARKS
ARKADELPHIA    FAIR      56  56 100 CALM      30.05S FOG
6HR MIN TEMP:  56; 6HR MAX TEMP:  65;

CAMDEN         CLEAR     55  54  94 CALM      30.05S
TEXARKANA      CLEAR     60  55  83 CALM      30.05S
6HR MIN TEMP:  58; 6HR MAX TEMP:  68;

EL DORADO      CLEAR     55  54  96 CALM      30.05S
6HR MIN TEMP:  55; 6HR MAX TEMP:  63;

DE QUEEN       FOG       56  56 100 CALM      30.03F VSB 1/2
6HR MIN TEMP:  55; 6HR MAX TEMP:  63;

$$

ARZ056-057-069-210700-
SOUTHEAST ARKANSAS

CITY           SKY/WX    TMP DP  RH WIND       PRES   REMARKS
PINE BLUFF     MOCLDY    55  52  89 S3        30.05F
6HR MIN TEMP:  55; 6HR MAX TEMP:  66;

STUTTGART      CLEAR     57  54  88 SW3       30.05S
6HR MIN TEMP:  57; 6HR MAX TEMP:  64;

MONTICELLO     CLEAR     57  54  89 CALM      30.05S
6HR MIN TEMP:  56; 6HR MAX TEMP:  63; 6HR PCP: TRACE;


$$




USA.gov is the U.S. government's official web portal to all federal, state and local government web resources and services.